Location: Unspecified
(0.0000°N, 0.0000°E)
Time: 12:10:05
(UTC+00:00)

STARLINK 1042 - Pass Details

Date: 11 December 2019
Orbit: 449 x 451 km, 53.0° (Epoch: 11 December)

Event Time Altitude Azimuth Distance (km) Brightness Sun altitude
Rises 19:35:13 0° 199° (SSW) 2,443 7.6 -23.3°
Reaches altitude 10° 19:37:30 10° 189° (S) 1,570 6.3 -23.8°
Enters shadow 19:38:51 19° 174° (S) 1,116 5.3 -24.1°
